Hourly Data Report for August 03, 2021

FLIN FLON
MANITOBA
Current Station Operator: ECCC - MSC

54°41'00.000" N
101°41'00.000" W
303.90 m
5050919
71954
WFO

Download Data

Hourly Data (August 2021)
Hourly Data Report for August 3, 2021
TIME
LST
Temp Definition
°C
Dew Point Definition
°C
Rel Hum Definition
%
Precip. Amount Definition
mm

Wind Dir Definition
10's deg

Wind Spd Definition
km/h
Visibility Definition
km
Stn Press Definition
kPa
Hmdx Definition


Wind Chill Definition


Weather Definition


00:00 20.2 15.9 76 0.0 6 3   97.94 25   LegendNANA
01:00 18.4 15.2 81 0.0 10 3   97.93     LegendNANA
02:00 19.8 16.9 83 0.0 6 5   97.92     LegendNANA
03:00 19.1 15.8 81 0.0 5 4   97.91     LegendNANA
04:00 18.5 15.5 83 0.0 7 4   97.88     LegendNANA
05:00 17.1 15.1 88 0.0 8 2   97.88     LegendNANA
06:00 17.2 15.2 88 0.0 8 3   97.86     LegendNANA
07:00 18.8 15.4 81 0.0 9 2   97.86     LegendNANA
08:00 20.1 16.0 77 0.0 17 5   97.83 25   LegendNANA
09:00 21.5 16.1 71 0.0 19 5   97.80 26   LegendNANA
10:00 23.2 16.2 65 0.0 19 4   97.75 28   LegendNANA
11:00 25.2 15.5 55 0.0 18 6   97.71 29   LegendNANA
12:00 26.6 14.5 47 0.0 19 8   97.66 30   LegendNANA
13:00 28.3 14.5 43 0.0 19 10   97.62 32   LegendNANA
14:00 28.5 12.6 37 0.0 17 8   97.61 31   LegendNANA
15:00 28.4 13.6 40 0.0 17 12   97.58 32   LegendNANA
16:00 26.9 16.4 53 0.0 26 17   97.59 32   LegendNANA
17:00 26.0 16.8 57 0.0 26 13   97.58 31   LegendNANA
18:00 25.5 17.2 60 0.0 26 7   97.55 31   LegendNANA
19:00 25.1 17.1 61 0.0 27 5   97.51 30   LegendNANA
20:00 24.4 16.3 61 0.0 27 7   97.50 29   LegendNANA
21:00 23.6 15.3 60 0.0 25 9   97.49 28   LegendNANA
22:00 22.8 16.4 67 0.0 26 9   97.46 28   LegendNANA
23:00 22.3 16.8 71 0.0 30 7   97.40 27   LegendNANA

Notes on Data Quality.

Legend

  • E = Estimated
  • M = Missing
  • NA = Not Available*
  • [empty] = Indicates an unobserved value
Date modified: